QPF
0.00 0.00 0.00 0.00 0.00 0.00 0.00 0.00 0.00 0.00 0.00 0.01 0.02 0.05 0.05 0.04 0.02 0.06 0.03 0.08 0.11 0.08 0.17 0.27 0.32 0.28 0.31 0.23 0.10 0.02 0.01 0.01 0.01 0.02 0.04 0.03 0.21 0.17 0.14 0.04 0.01 0.00 0.00
0.00 0.00 0.00 0.00 0.01 0.01 0.00 0.00 0.00 0.00 0.00 0.00 0.01 0.03 0.03 0.03 0.04 0.05 0.06 0.04 0.02 0.11 0.10 0.18 0.31 0.51 0.35 0.07 0.00 0.00 0.00 0.00 0.00 0.00 0.00 0.00 0.01 0.03 0.05 0.07 0.03 0.00 0.00
0.01 0.03 0.13 0.22 0.16 0.16 0.10 0.06 0.03 0.03 0.03 0.03 0.05 0.14 0.16 0.13 0.12 0.11 0.06 0.06 0.06 0.05 0.03 0.03 0.01 0.02 0.01 0.00 0.00 0.00 0.00 0.00 0.00 0.00 0.00 0.01 0.02 0.04 0.06 0.06 0.09 0.04 0.00
0.02 0.14 0.26 0.41 0.82 0.88 0.61 0.40 0.29 0.26 0.27 0.27 0.23 0.23 0.16 0.19 0.22 0.08 0.01 0.00 0.00 0.00 0.00 0.00 0.00 0.00 0.00 0.00 0.00 0.00 0.00 0.00 0.00 0.00 0.00 0.00 0.00 0.00 0.03 0.04 0.03 0.01 0.00
0.08 0.24 0.98 1.35 1.50 1.05 0.50 0.47 0.32 0.20 0.16 0.11 0.08 0.06 0.08 0.10 0.14 0.10 0.10 0.04 0.01 0.01 0.00 0.00 0.00 0.00 0.00 0.00 0.00 0.00 0.00 0.00 0.00 0.00 0.00 0.00 0.00 0.00 0.00 0.00 0.01 0.00 0.00
0.05 0.15 0.37 0.78 0.70 0.58 0.30 0.28 0.31 0.25 0.42 0.39 0.44 0.21 0.08 0.12 0.15 0.08 0.04 0.02 0.01 0.00 0.00 0.00 0.00 0.00 0.00 0.00 0.00 0.00 0.00 0.00 0.00 0.00 0.00 0.00 0.00 0.00 0.00 0.00 0.00 0.00 0.00
0.06 0.19 0.26 0.36 0.29 0.16 0.04 0.04 0.10 0.13 0.14 0.15 0.10 0.05 0.02 0.04 0.03 0.01 0.00 0.00 0.00 0.00 0.00 0.00 0.00 0.00 0.00 0.00 0.00 0.00 0.00 0.00 0.00 0.00 0.00 0.00 0.00 0.00 0.00 0.00 0.00 0.00 0.00
0.02 0.07 0.06 0.01 0.04 0.02 0.00 0.01 0.01 0.01 0.00 0.00 0.00 0.00 0.00 0.00 0.00 0.00 0.00 0.00 0.00 0.00 0.00 0.00 0.00 0.00 0.00 0.00 0.00 0.00 0.00 0.00 0.00 0.00 0.00 0.00 0.00 0.00 0.01 0.01 0.01 0.00 0.00
0.00 0.01 0.01 0.00 0.00 0.00 0.00 0.00 0.00 0.00 0.00 0.00 0.00 0.00 0.00 0.00 0.00 0.00 0.00 0.00 0.00 0.00 0.00 0.00 0.00 0.00 0.00 0.00 0.00 0.00 0.00 0.00 0.00 0.00 0.00 0.00 0.00 0.00 0.00 0.00 0.00 0.00 0.00
0.00 0.00 0.00 0.00 0.00 0.00 0.00 0.00 0.00 0.00 0.00 0.00 0.00 0.00 0.00 0.00 0.00 0.00 0.00 0.00 0.00 0.00 0.00 0.00 0.00 0.00 0.00 0.00 0.00 0.00 0.00 0.00 0.00 0.00 0.00 0.00 0.00 0.00 0.00 0.00 0.00 0.00 0.00
0.00 0.00 0.00 0.00 0.00 0.00 0.00 0.00 0.00 0.00 0.00 0.00 0.00 0.00 0.00 0.00 0.00 0.00 0.00 0.00 0.00 0.00 0.00 0.00 0.00 0.00 0.00 0.00 0.00 0.00 0.00 0.00 0.00 0.00 0.00 0.00 0.00 0.00 0.00 0.00 0.00 0.00 0.01
0.00 0.00 0.00 0.00 0.00 0.00 0.00 0.00 0.00 0.00 0.00 0.00 0.00 0.00 0.00 0.00 0.00 0.00 0.00 0.00 0.00 0.00 0.00 0.00 0.00 0.00 0.00 0.00 0.00 0.00 0.00 0.00 0.00 0.00 0.00 0.00 0.00 0.00 0.00 0.00 0.00 0.01 0.02
0.00 0.00 0.00 0.00 0.00 0.00 0.00 0.00 0.00 0.00 0.00 0.00 0.00 0.00 0.00 0.00 0.00 0.00 0.00 0.00 0.00 0.00 0.00 0.00 0.00 0.00 0.00 0.00 0.00 0.00 0.00 0.00 0.00 0.00 0.00 0.00 0.00 0.00 0.00 0.00 0.00 0.00 0.00
0.00 0.00 0.00 0.00 0.00 0.00 0.00 0.00 0.00 0.00 0.00 0.00 0.00 0.00 0.00 0.00 0.00 0.00 0.00 0.00 0.00 0.00 0.00 0.00 0.00 0.00 0.00 0.00 0.00 0.00 0.00 0.00 0.00 0.00 0.00 0.00 0.00 0.00 0.00 0.00 0.00 0.00 0.00
0.00 0.00 0.00 0.00 0.00 0.00 0.00 0.00 0.00 0.00 0.00 0.00 0.00 0.00 0.00 0.00 0.00 0.00 0.00 0.00 0.00 0.00 0.00 0.00 0.00 0.00 0.00 0.00 0.00 0.00 0.00 0.00 0.00 0.00 0.00 0.00 0.00 0.00 0.00 0.00 0.00 0.00 0.00
0.00 0.00 0.00 0.00 0.00 0.00 0.00 0.00 0.00 0.00 0.00 0.00 0.00 0.00 0.00 0.00 0.00 0.00 0.00 0.00 0.00 0.00 0.00 0.00 0.00 0.00 0.00 0.00 0.00 0.00 0.00 0.00 0.00 0.00 0.00 0.00 0.00 0.00 0.00 0.00 0.00 0.00 0.00
0.00 0.00 0.00 0.00 0.00 0.00 0.00 0.00 0.00 0.00 0.00 0.00 0.00 0.00 0.00 0.00 0.00 0.00 0.00 0.00 0.00 0.00 0.00 0.00 0.00 0.00 0.00 0.00 0.00 0.00 0.00 0.00 0.00 0.00 0.00 0.00 0.00 0.00 0.00 0.00 0.00 0.00 0.00
0.00 0.00 0.00 0.00 0.00 0.00 0.00 0.00 0.00 0.00 0.00 0.00 0.00 0.00 0.00 0.00 0.00 0.00 0.00 0.00 0.00 0.00 0.00 0.00 0.00 0.00 0.00 0.00 0.00 0.00 0.01 0.00 0.00 0.00 0.00 0.00 0.01 0.02 0.02 0.01 0.01 0.00 0.00
0.00 0.00 0.00 0.00 0.00 0.00 0.00 0.00 0.00 0.00 0.00 0.00 0.00 0.00 0.00 0.00 0.00 0.00 0.00 0.00 0.00 0.00 0.00 0.00 0.00 0.00 0.00 0.00 0.00 0.01 0.01 0.00 0.00 0.00 0.00 0.01 0.01 0.01 0.00 0.00 0.01 0.00 0.00
0.00 0.00 0.00 0.00 0.00 0.00 0.00 0.00 0.00 0.00 0.00 0.00 0.00 0.00 0.00 0.00 0.00 0.00 0.00 0.00 0.00 0.00 0.00 0.00 0.00 0.00 0.01 0.01 0.00 0.00 0.00 0.00 0.00 0.01 0.01 0.01 0.01 0.02 0.02 0.02 0.01 0.01 0.01
0.00 0.00 0.00 0.00 0.00 0.00 0.00 0.00 0.00 0.00 0.00 0.00 0.00 0.00 0.00 0.00 0.00 0.00 0.00 0.00 0.00 0.00 0.00 0.00 0.00 0.00 0.00 0.00 0.00 0.00 0.00 0.00 0.00 0.00 0.01 0.01 0.01 0.01 0.01 0.02 0.01 0.00 0.01
0.00 0.00 0.00 0.00 0.00 0.00 0.00 0.00 0.00 0.00 0.00 0.00 0.00 0.00 0.00 0.00 0.00 0.00 0.00 0.00 0.00 0.00 0.00 0.00 0.00 0.00 0.00 0.00 0.00 0.00 0.00 0.00 0.00 0.01 0.01 0.01 0.02 0.02 0.02 0.02 0.01 0.00 0.00
0.00 0.00 0.00 0.00 0.00 0.00 0.00 0.00 0.00 0.01 0.03 0.02 0.00 0.00 0.00 0.00 0.00 0.00 0.00 0.00 0.00 0.00 0.00 0.00 0.00 0.00 0.00 0.00 0.00 0.00 0.00 0.01 0.01 0.02 0.02 0.03 0.04 0.01 0.00 0.00 0.00 0.00 0.00
0.00 0.00 0.00 0.00 0.00 0.00 0.00 0.00 0.00 0.02 0.03 0.01 0.00 0.01 0.00 0.00 0.00 0.00 0.00 0.00 0.00 0.00 0.00 0.00 0.00 0.00 0.00 0.00 0.00 0.00 0.01 0.01 0.01 0.02 0.01 0.01 0.00 0.00 0.00 0.00 0.00 0.00 0.00
0.00 0.00 0.00 0.00 0.00 0.00 0.00 0.00 0.01 0.06 0.04 0.04 0.02 0.01 0.00 0.00 0.00 0.00 0.00 0.00 0.00 0.00 0.00 0.00 0.00 0.00 0.00 0.00 0.00 0.00 0.01 0.02 0.02 0.01 0.00 0.00 0.00 0.00 0.00 0.00 0.00 0.00 0.00
0.00 0.00 0.00 0.00 0.00 0.00 0.00 0.00 0.01 0.00 0.01 0.01 0.00 0.00 0.00 0.00 0.00 0.00 0.00 0.00 0.00 0.00 0.00 0.00 0.00 0.00 0.00 0.00 0.00 0.00 0.00 0.00 0.00 0.00 0.00 0.00 0.00 0.00 0.00 0.00 0.00 0.00 0.00
MSLP
1005.04 1005.78 1006.60 1007.25 1007.88 1008.48 1008.65 1008.28 1008.52 1008.76 1009.00 1009.55 1009.87 1010.09 1010.35 1010.50 1010.74 1010.40 1010.07 1009.64 1009.70 1010.37 1011.03 1011.52 1011.87 1011.85 1012.51 1012.72 1012.17 1012.46 1011.93 1011.23 1011.76 1012.52 1012.57 1013.14 1013.68 1013.73 1013.30 1012.51 1012.32 1012.72 1012.69
1004.13 1004.98 1006.04 1006.79 1007.72 1008.48 1008.47 1007.93 1008.26 1008.60 1008.73 1009.06 1009.53 1010.19 1010.42 1010.28 1010.34 1010.31 1010.12 1009.99 1010.00 1010.48 1011.00 1011.37 1011.92 1011.97 1012.43 1011.59 1011.81 1011.36 1010.72 1010.86 1011.94 1012.37 1012.53 1012.61 1012.56 1012.25 1012.05 1012.08 1012.12 1011.57 1011.63
1004.85 1006.05 1006.92 1007.71 1006.79 1008.53 1008.50 1008.51 1008.33 1008.70 1009.03 1009.22 1009.60 1010.03 1010.45 1010.55 1010.73 1010.93 1010.81 1010.84 1010.97 1010.75 1011.25 1011.34 1011.63 1011.73 1012.35 1012.15 1011.46 1010.80 1011.23 1011.63 1011.92 1011.94 1012.33 1012.41 1011.86 1011.44 1011.63 1011.62 1011.68 1011.60 1011.42
1005.96 1006.97 1008.21 1009.92 1010.72 1010.10 1010.31 1009.88 1009.92 1009.79 1010.04 1010.26 1010.56 1010.78 1010.66 1010.65 1011.25 1011.21 1011.32 1011.56 1011.52 1011.26 1011.21 1011.57 1011.65 1011.99 1012.20 1012.14 1011.81 1011.69 1011.58 1011.73 1011.99 1011.85 1011.65 1011.35 1010.83 1010.41 1010.43 1010.84 1011.15 1011.38 1011.16
1007.18 1008.71 1010.34 1010.43 1011.71 1010.48 1010.65 1010.67 1011.42 1011.52 1010.93 1011.10 1012.04 1011.83 1011.85 1011.35 1012.08 1012.31 1012.33 1012.36 1012.37 1012.10 1011.65 1011.78 1011.76 1011.95 1011.94 1012.01 1012.22 1012.19 1012.19 1012.10 1012.14 1012.35 1012.26 1011.78 1011.44 1011.29 1011.36 1011.36 1011.22 1010.85 1010.46
1007.99 1009.65 1010.50 1010.48 1009.97 1010.25 1010.16 1011.13 1011.11 1011.45 1011.82 1012.05 1011.74 1012.89 1012.27 1012.55 1012.99 1012.98 1013.22 1013.25 1013.01 1012.90 1012.45 1012.12 1011.84 1011.95 1011.57 1011.60 1011.88 1012.34 1012.53 1012.57 1012.57 1012.31 1011.89 1011.75 1011.65 1011.65 1011.35 1011.28 1011.10 1010.80 1010.32
1009.19 1010.26 1011.01 1011.14 1011.05 1011.83 1011.16 1010.65 1011.44 1011.48 1011.73 1011.81 1012.59 1012.65 1012.48 1012.64 1013.24 1013.27 1013.33 1013.47 1013.28 1013.08 1012.87 1012.66 1012.38 1012.13 1011.75 1011.35 1011.71 1012.44 1012.51 1012.44 1012.51 1012.56 1012.59 1012.19 1011.87 1011.73 1011.43 1011.17 1011.00 1010.75 1010.50
1009.35 1010.10 1010.67 1011.21 1011.66 1011.71 1011.45 1011.49 1011.68 1011.39 1011.63 1011.19 1011.67 1011.81 1012.36 1012.99 1013.42 1013.67 1013.83 1013.67 1013.33 1013.06 1013.07 1013.00 1013.08 1012.85 1012.85 1012.13 1012.07 1012.62 1012.69 1012.65 1012.53 1012.43 1012.23 1012.02 1011.68 1011.53 1011.51 1011.10 1010.94 1010.94 1010.45
1009.21 1009.71 1010.05 1010.43 1010.75 1010.99 1011.04 1011.31 1011.34 1011.16 1011.05 1011.26 1011.87 1012.30 1012.61 1013.11 1013.70 1013.81 1013.93 1013.73 1013.46 1013.05 1012.88 1012.89 1013.11 1013.19 1013.46 1012.98 1012.03 1013.26 1012.99 1012.81 1012.38 1012.04 1011.78 1011.65 1011.36 1011.07 1011.00 1011.10 1010.81 1010.66 1009.89
1009.24 1009.83 1010.07 1010.35 1010.71 1011.01 1011.04 1011.23 1011.32 1011.31 1011.52 1011.85 1012.28 1012.61 1012.92 1013.03 1013.64 1014.00 1014.12 1013.84 1013.63 1013.26 1012.92 1013.01 1013.37 1013.73 1013.13 1012.30 1013.39 1013.51 1013.15 1012.67 1012.43 1012.13 1011.99 1011.41 1010.84 1010.36 1010.07 1010.27 1010.12 1010.10 1009.65
1009.62 1010.00 1010.44 1010.83 1011.08 1011.34 1011.54 1011.38 1011.54 1011.66 1012.07 1012.23 1012.48 1012.53 1012.42 1012.81 1013.43 1013.74 1013.98 1013.93 1013.85 1013.81 1013.46 1013.20 1013.30 1013.09 1013.42 1013.68 1013.48 1013.51 1012.90 1012.36 1012.24 1012.10 1011.55 1011.08 1010.26 1009.53 1009.05 1008.83 1008.66 1008.74 1008.65
1009.89 1010.28 1010.58 1010.85 1010.92 1011.57 1011.76 1011.97 1012.09 1012.12 1012.19 1012.30 1012.32 1012.20 1012.10 1012.68 1013.23 1013.64 1013.88 1014.08 1014.15 1014.06 1013.77 1013.39 1013.62 1013.42 1013.35 1013.26 1013.01 1012.46 1012.03 1011.94 1011.99 1011.54 1010.83 1010.14 1009.30 1008.87 1008.22 1007.75 1007.40 1007.65 1007.63
1010.46 1010.70 1010.83 1011.16 1011.48 1011.71 1011.82 1012.00 1012.14 1012.25 1012.00 1011.89 1011.92 1011.99 1011.89 1012.34 1012.87 1013.63 1013.96 1014.00 1014.15 1014.23 1014.15 1013.99 1013.76 1013.46 1012.98 1012.46 1011.92 1011.37 1011.28 1011.31 1011.10 1010.72 1010.12 1009.32 1008.62 1008.16 1007.92 1007.61 1007.27 1006.70 1006.72
1010.70 1011.13 1011.26 1011.47 1011.67 1011.75 1011.76 1011.71 1011.90 1012.10 1012.27 1012.30 1012.25 1012.17 1012.28 1012.76 1013.32 1013.81 1014.07 1014.12 1014.03 1013.87 1013.95 1013.88 1013.45 1013.08 1012.46 1011.95 1011.50 1011.14 1010.85 1010.96 1010.97 1010.40 1010.08 1009.50 1008.92 1008.33 1008.03 1007.39 1007.00 1006.66 1006.33
1011.12 1011.33 1011.40 1011.19 1011.34 1011.50 1011.64 1011.81 1012.22 1012.65 1012.91 1013.09 1013.17 1013.26 1013.33 1013.35 1014.38 1014.57 1014.73 1014.62 1014.32 1014.32 1014.42 1013.92 1013.29 1012.49 1011.79 1011.10 1010.66 1010.65 1010.78 1010.68 1010.64 1010.65 1010.37 1010.10 1009.50 1008.82 1008.32 1007.84 1007.71 1007.24 1006.75
1011.29 1011.25 1011.23 1011.00 1010.94 1011.18 1011.57 1011.91 1012.31 1012.64 1012.92 1013.20 1013.29 1013.34 1013.45 1013.71 1014.05 1014.25 1014.46 1014.58 1014.32 1014.66 1014.62 1013.89 1013.00 1012.06 1011.42 1011.13 1011.08 1011.29 1011.07 1011.02 1010.98 1010.82 1010.83 1010.69 1010.11 1009.45 1008.80 1008.14 1007.74 1007.48 1007.23
1011.34 1011.31 1011.26 1011.13 1011.16 1011.35 1011.62 1011.80 1012.11 1012.80 1012.98 1013.24 1013.42 1013.81 1014.17 1014.45 1014.42 1014.38 1014.37 1014.55 1014.30 1014.89 1014.40 1013.12 1012.37 1011.96 1011.96 1011.98 1011.79 1011.58 1011.49 1011.47 1011.41 1011.25 1011.20 1010.93 1010.56 1010.12 1009.67 1008.97 1008.31 1007.74 1007.12
1011.56 1011.62 1011.56 1011.17 1011.26 1011.38 1011.56 1012.00 1012.11 1012.07 1012.34 1012.72 1013.37 1013.67 1013.85 1013.99 1014.01 1014.04 1014.28 1014.52 1014.13 1013.00 1012.79 1012.29 1012.15 1012.09 1011.98 1012.02 1011.95 1012.06 1012.07 1012.07 1012.15 1012.09 1011.80 1011.33 1010.78 1010.41 1009.97 1009.36 1008.85 1008.17 1007.67
1011.39 1011.24 1011.40 1011.52 1011.42 1011.48 1011.62 1011.97 1012.26 1012.33 1012.38 1012.49 1012.45 1013.42 1013.29 1013.36 1013.44 1013.25 1013.66 1013.87 1013.25 1012.71 1012.10 1012.15 1012.32 1012.53 1012.46 1012.39 1012.35 1012.40 1012.44 1012.53 1012.76 1012.30 1011.94 1011.52 1011.00 1010.44 1010.06 1009.45 1008.92 1008.62 1008.30
1011.61 1011.55 1011.63 1011.62 1011.59 1011.54 1011.79 1011.88 1011.99 1012.38 1012.54 1012.47 1012.29 1012.32 1012.40 1012.66 1012.96 1012.61 1012.17 1012.10 1012.06 1011.97 1012.04 1012.06 1012.33 1012.63 1012.71 1012.77 1012.73 1012.73 1013.00 1012.97 1012.80 1012.48 1012.11 1011.63 1011.09 1010.59 1010.21 1009.84 1009.23 1008.77 1008.30
1011.12 1011.16 1011.39 1011.52 1011.36 1011.38 1011.37 1011.68 1011.84 1012.06 1012.12 1012.25 1012.22 1012.11 1012.27 1012.44 1012.25 1011.93 1011.62 1011.48 1011.67 1011.84 1012.09 1012.34 1012.52 1012.77 1013.01 1012.81 1012.87 1013.07 1013.02 1012.81 1012.52 1012.23 1011.90 1011.57 1011.22 1010.78 1010.52 1010.02 1009.44 1008.83 1008.29
1010.87 1010.81 1011.01 1011.12 1010.95 1011.02 1011.30 1011.46 1011.67 1011.73 1011.85 1012.00 1012.12 1011.97 1011.91 1011.92 1011.80 1011.59 1011.20 1011.15 1011.52 1012.02 1012.39 1012.81 1012.93 1013.00 1013.05 1013.13 1013.10 1013.00 1012.86 1012.64 1012.41 1012.16 1012.06 1011.91 1011.45 1010.97 1010.43 1009.78 1009.23 1008.49 1008.04
1011.12 1010.94 1010.78 1011.01 1011.02 1011.20 1011.21 1011.39 1011.60 1011.72 1011.83 1011.99 1012.04 1012.10 1011.92 1011.64 1011.25 1011.13 1010.73 1010.81 1011.39 1011.83 1012.37 1012.81 1013.00 1013.06 1013.02 1012.92 1012.84 1012.83 1012.74 1012.50 1012.22 1012.25 1012.12 1011.81 1011.30 1010.71 1010.27 1009.65 1008.98 1008.26 1007.73
1010.85 1010.75 1010.79 1010.98 1011.09 1011.23 1011.19 1011.18 1011.53 1011.63 1011.48 1011.60 1011.69 1011.85 1011.59 1011.15 1010.53 1010.30 1010.24 1010.58 1010.96 1011.54 1012.04 1012.46 1012.66 1012.69 1012.68 1012.62 1012.52 1012.35 1012.11 1011.92 1011.84 1011.76 1011.64 1011.40 1010.88 1010.40 1009.83 1009.19 1008.57 1007.95 1007.33
1010.76 1010.71 1010.68 1010.69 1010.69 1010.90 1010.96 1010.96 1011.30 1011.19 1011.43 1011.27 1011.38 1011.00 1011.11 1010.39 1010.09 1010.13 1009.91 1010.07 1010.41 1011.03 1011.32 1011.34 1011.41 1011.51 1011.55 1011.60 1011.52 1011.36 1011.20 1011.24 1011.25 1011.14 1011.13 1010.79 1010.27 1009.77 1009.31 1008.76 1008.16 1007.51 1006.86
1011.14 1010.89 1010.85 1010.82 1010.57 1010.77 1010.88 1010.80 1010.78 1010.59 1010.55 1010.64 1010.68 1010.47 1010.24 1010.13 1009.85 1009.62 1009.59 1009.72 1009.87 1010.14 1010.23 1010.35 1010.27 1010.14 1010.27 1010.36 1010.34 1010.30 1010.40 1010.47 1010.38 1010.20 1010.25 1009.99 1009.56 1008.97 1008.40 1007.66 1007.15 1006.70 1006.13
Thickness
5842 5835 5827 5822 5817 5810 5808 5813 5814 5813 5810 5802 5803 5800 5798 5796 5799 5803 5802 5804 5803 5798 5795 5790 5784 5787 5783 5779 5783 5782 5790 5797 5783 5779 5786 5774 5767 5769 5775 5779 5780 5780 5784
5847 5836 5824 5819 5811 5805 5804 5809 5805 5801 5805 5799 5796 5793 5790 5793 5794 5792 5790 5792 5792 5788 5786 5784 5779 5783 5771 5781 5781 5785 5792 5790 5775 5770 5777 5777 5775 5777 5780 5778 5776 5779 5782
5833 5820 5809 5797 5807 5793 5794 5796 5797 5792 5789 5789 5787 5781 5782 5783 5780 5777 5780 5779 5777 5779 5777 5775 5773 5774 5770 5772 5777 5785 5779 5776 5775 5774 5769 5772 5778 5782 5778 5776 5773 5775 5777
5818 5805 5792 5774 5758 5759 5762 5767 5769 5775 5773 5771 5768 5770 5772 5772 5764 5764 5767 5765 5764 5767 5770 5769 5768 5765 5765 5764 5770 5769 5771 5771 5770 5769 5769 5771 5774 5777 5778 5771 5769 5770 5771
5803 5782 5768 5759 5736 5733 5740 5753 5749 5747 5755 5754 5746 5752 5752 5757 5752 5749 5750 5749 5748 5750 5756 5756 5758 5758 5758 5760 5758 5757 5757 5758 5759 5756 5756 5759 5761 5761 5758 5764 5765 5769 5773
5790 5771 5761 5755 5748 5735 5744 5746 5725 5737 5736 5735 5735 5726 5739 5743 5735 5735 5733 5733 5735 5734 5737 5743 5746 5746 5751 5751 5752 5749 5748 5746 5744 5746 5750 5750 5752 5752 5754 5754 5754 5754 5756
5773 5767 5753 5748 5747 5735 5740 5751 5743 5740 5734 5731 5727 5727 5731 5730 5723 5722 5724 5724 5724 5725 5725 5725 5726 5733 5739 5744 5744 5740 5739 5738 5737 5737 5737 5741 5743 5744 5745 5744 5744 5744 5746
5767 5757 5751 5744 5740 5738 5738 5736 5733 5732 5731 5735 5731 5732 5725 5718 5711 5709 5709 5713 5716 5717 5715 5712 5713 5715 5716 5725 5728 5726 5725 5725 5726 5729 5732 5734 5736 5737 5735 5737 5737 5734 5740
5757 5752 5748 5744 5739 5736 5733 5728 5726 5725 5727 5727 5724 5717 5713 5708 5701 5700 5701 5704 5704 5708 5709 5705 5705 5704 5699 5705 5719 5707 5712 5712 5716 5721 5723 5724 5726 5728 5727 5725 5725 5720 5727
5747 5741 5740 5735 5730 5726 5724 5720 5720 5721 5718 5715 5710 5707 5701 5703 5697 5694 5693 5696 5695 5697 5699 5698 5692 5687 5693 5704 5696 5694 5697 5701 5703 5705 5707 5712 5716 5720 5722 5719 5718 5712 5715
5737 5731 5724 5723 5720 5716 5714 5714 5711 5709 5705 5703 5699 5699 5702 5700 5693 5688 5686 5686 5686 5683 5684 5686 5688 5690 5687 5685 5686 5684 5689 5694 5694 5694 5698 5702 5708 5713 5716 5716 5717 5713 5711
5726 5721 5716 5711 5710 5705 5702 5699 5697 5696 5695 5694 5693 5694 5695 5690 5685 5680 5678 5675 5674 5673 5674 5679 5676 5676 5676 5675 5677 5682 5684 5684 5683 5686 5691 5694 5700 5704 5709 5713 5715 5712 5710
5709 5706 5706 5701 5696 5694 5692 5690 5687 5686 5687 5688 5688 5685 5686 5684 5680 5672 5668 5665 5662 5662 5663 5662 5663 5664 5667 5671 5674 5677 5675 5676 5676 5677 5681 5689 5694 5696 5697 5698 5700 5701 5702
5696 5692 5691 5687 5684 5682 5683 5682 5680 5678 5674 5673 5674 5674 5673 5668 5665 5661 5657 5656 5656 5655 5653 5651 5653 5655 5658 5661 5663 5665 5668 5663 5660 5663 5665 5671 5674 5676 5676 5680 5682 5684 5685
5682 5681 5679 5681 5679 5676 5674 5672 5668 5664 5661 5658 5657 5655 5653 5652 5644 5641 5640 5640 5641 5638 5634 5637 5640 5645 5649 5652 5655 5653 5650 5647 5645 5643 5645 5647 5648 5654 5656 5658 5656 5659 5660
5671 5672 5670 5673 5673 5670 5665 5661 5655 5653 5650 5647 5644 5643 5643 5638 5633 5630 5626 5625 5624 5618 5618 5621 5625 5631 5635 5635 5632 5628 5628 5626 5624 5623 5622 5622 5626 5630 5634 5638 5639 5640 5640
5662 5662 5661 5662 5662 5659 5656 5653 5647 5640 5635 5631 5627 5623 5618 5615 5612 5611 5609 5606 5604 5598 5604 5612 5614 5614 5613 5611 5610 5608 5607 5606 5605 5604 5602 5603 5604 5607 5609 5614 5617 5621 5626
5653 5649 5650 5654 5651 5647 5644 5637 5635 5633 5630 5626 5614 5610 5604 5601 5598 5595 5589 5586 5592 5596 5598 5600 5597 5597 5596 5593 5593 5588 5586 5586 5583 5582 5582 5584 5586 5587 5590 5594 5596 5601 5603
5645 5646 5643 5639 5639 5636 5633 5626 5620 5617 5615 5611 5609 5597 5597 5593 5588 5585 5578 5579 5582 5584 5587 5584 5579 5574 5574 5573 5572 5569 5567 5564 5559 5561 5562 5564 5566 5569 5571 5576 5579 5580 5582
5633 5632 5628 5628 5626 5624 5619 5617 5614 5607 5602 5600 5598 5595 5591 5586 5583 5585 5582 5580 5579 5577 5574 5572 5566 5560 5558 5555 5553 5549 5543 5539 5538 5537 5538 5539 5542 5545 5548 5551 5557 5562 5566
5628 5627 5623 5620 5620 5616 5613 5606 5602 5598 5593 5587 5583 5581 5576 5572 5572 5572 5570 5571 5567 5564 5558 5554 5549 5545 5539 5537 5534 5528 5524 5522 5520 5519 5519 5518 5519 5522 5525 5531 5537 5545 5551
5621 5620 5616 5613 5614 5610 5603 5599 5594 5589 5582 5575 5568 5565 5560 5560 5560 5559 5561 5560 5556 5548 5542 5535 5531 5528 5524 5520 5515 5513 5510 5509 5506 5505 5501 5497 5498 5502 5509 5516 5524 5532 5539
5610 5610 5609 5605 5604 5598 5596 5591 5586 5580 5572 5561 5553 5548 5546 5548 5551 5552 5554 5553 5546 5539 5532 5525 5519 5514 5511 5509 5507 5504 5501 5499 5497 5493 5488 5486 5488 5493 5497 5505 5513 5523 5529
5605 5605 5601 5597 5593 5588 5585 5582 5576 5568 5567 5560 5553 5545 5542 5546 5550 5551 5552 5547 5541 5533 5525 5516 5510 5506 5504 5501 5500 5499 5497 5495 5492 5489 5487 5486 5487 5489 5494 5501 5507 5513 5521
5601 5598 5595 5592 5589 5584 5580 5578 5569 5568 5561 5556 5551 5548 5545 5549 5550 5547 5547 5544 5539 5531 5524 5520 5514 5508 5505 5502 5500 5499 5497 5493 5490 5488 5485 5485 5486 5488 5491 5495 5500 5507 5514
5588 5588 5586 5583 5584 5579 5576 5573 5571 5570 5567 5560 5554 5552 5551 5548 5548 5548 5546 5543 5539 5534 5529 5524 5520 5518 5512 5506 5502 5499 5496 5493 5491 5489 5485 5485 5485 5488 5491 5497 5501 5505 5511